Regional Weather Roundup
Issued by NWS

Home | Current Version | Previous Version | Graphics & Text | Print | Product List | Glossary On
Versions: 1 2 3 4 5 6 7 8 9 10 11 12 13 14 15 16 17 18 19 20 21 22 23 24 25 26 27 28 29 30 31 32 33 34 35 36 37 38 39 40 41 42 43 44 45 46 47 48 49 50
000
ASUS43 KMPX 261801
RWRMN
WEATHER ROUNDUP FOR MINNESOTA
NATIONAL WEATHER SERVICE TWIN CITIES/CHANHASSEN MN
1200 PM CST WED NOV 26 2014


NOTE: "FAIR" INDICATES FEW OR NO CLOUDS BELOW 12,000 FEET WITH NO
SIGNIFICANT WEATHER AND/OR OBSTRUCTIONS TO VISIBILITY. N/A MEANS
CURRENT SKY AND/OR WEATHER CONDITIONS ARE NOT AVAILABLE.

MNZ060>063-068>070-261900-
   Twin Cities Metro

CITY           SKY/WX    TMP DP  RH WIND       PRES   REMARKS
TWIN CITIES    LGT SNOW  26  21  81 N9        30.18S WCI  17
6HR MIN TEMP:  22; 6HR MAX TEMP:  26; 6HR PCP:  0.17;

ST PAUL        LGT SNOW  26  21  81 N9        30.19F WCI  17
CRYSTAL        LGT SNOW  27  20  75 NE6       30.17S WCI  20
BLAINE         LGT SNOW  27  23  86 N7        30.17F WCI  19
LAKEVILLE      MIX PCPN  21  19  93 N9        30.16S VSB 3/4 WCI  11
EDEN PRAIRIE   CLOUDY    26  21  81 NE7       30.16F HAZE    WCI  18
6HR MIN TEMP:  23; 6HR MAX TEMP:  26; 6HR PCP:  0.05;

SOUTH ST PAUL  LGT SNOW  26  22  87 N7        30.17F WCI  18
LAKE ELMO      LGT SNOW  27  23  86 NE7       30.18S WCI  19
$$
MNZ001>005-007-008-013>017-022>024-027-028-261900-
   Northwest Minnesota

CITY           SKY/WX    TMP DP  RH WIND       PRES   REMARKS
BEMIDJI        FAIR       6  -4  62 NW10      30.28S WCI  -9
HALLOCK        FAIR      -2  -9  71 N14G20    30.45S WCI -21
ROSEAU         FAIR       0  -9  65 N8        30.38F WCI -15
WARROAD        FAIR       0  -9  65 NW6       30.37F WCI -12
THIEF RVR FALL FAIR       1  -9  60 N14       30.37S WCI -17
CROOKSTON      FAIR       1  -6  71 N16       30.43S WCI -18
FOSSTON        FAIR       7  -6  56 N13       30.34S WCI  -9
DETROIT LAKES  FAIR       9   3  78 N9G18     30.30S WCI  -5
MOORHEAD       FAIR       5   0  78 N18       30.38F WCI -15
PARK RAPIDS    PTSUNNY   13   4  67 N14       30.24F WCI  -2
MAHNOMEN       FAIR       5  -3  68 N15       30.33S WCI -13
$$
MNZ006-009>011-018-025>026-261900-
   North Central Minnesota

CITY           SKY/WX    TMP DP  RH WIND       PRES   REMARKS
BAUDETTE       FAIR      -1  -8  72 NW14      30.34R WCI -20
FLAG ISLAND    FAIR      -2 -11  65 NW10      30.37R WCI -19
INTL FALLS     FAIR       6  -4  63 N9        30.29R WCI  -8
6HR MIN TEMP:   3; 6HR MAX TEMP:  10;

WASKISH        FAIR       7   0  72 CALM      30.31S
BIG FORK       PTSUNNY   12   3  67 N7        30.25F WCI   2
LONGVILLE      CLOUDY    14   5  67 NW6       30.24S WCI   5
GRAND RAPIDS   PTSUNNY   12   5  73 NW10      30.21S WCI  -1
CRANE LAKE     FAIR      10   1  67 N7        30.27S WCI   0
ORR            CLOUDY    12   1  62 NW9       30.21S WCI   0
COOK           CLOUDY    12   5  73 NW7       30.22S WCI   2
WALKER         CLOUDY    11   2  68 NW6       30.25F WCI   1
$$
MNZ012-019>021-037-261900-
   Northeast Minnesota

CITY           SKY/WX    TMP DP  RH WIND       PRES   REMARKS
DULUTH         FLURRIES  19  10  68 NW12      30.16S WCI   7
6HR MIN TEMP:  17; 6HR MAX TEMP:  20; 6HR PCP:  0.01;

ELY            LGT SNOW  14   9  79 N6        30.18S WCI   5
HIBBING        FLURRIES  15   6  67 NW12      30.21R WCI   2
EVELETH        FLURRIES  18   9  68 NW12      30.20S WCI   5
DULUTH HARBOR  CLOUDY    25  16  68 CALM      30.22S
TWO HARBORS    FAIR      23  12  63 N7        30.16S WCI  15
SILVER BAY     FAIR      21  10  63 NW6       30.15S WCI  14
GRAND MARAIS     N/A     21  10  62 VRB7G17   30.19S WCI  12
G MARAIS ARPRT FLURRIES  14   7  73 N9        30.11R WCI   2
$$
MNZ029>031-032-039>041-046>048-054>057-064-261900-
   West Central Minnesota

CITY           SKY/WX    TMP DP  RH WIND       PRES   REMARKS
FERGUS FALLS   FAIR      10   1  67 N13G21    30.33S WCI  -5
WHEATON        FAIR       7   1  78 NW18      30.35R WCI -12
MORRIS         CLOUDY    12   7  79 NW20      30.26S WCI  -6
ALEXANDRIA     CLOUDY    19  11  70 N12       30.22F WCI   7
ELBOW LAKE       N/A     13   8  80 NW15      30.27R WCI  -3
WADENA         PTSUNNY   18   9  68 N12       30.24S WCI   5
GLENWOOD       PTSUNNY   19  14  79 N13       30.23R WCI   7
APPLETON       LGT SNOW  12   7  79 N23       30.28S WCI  -7
BENSON         CLOUDY    14  10  85 N14G21    30.24F WCI  -1
ORTONVILLE     PTSUNNY   10   3  72 NW15      30.30R WCI  -6
MADISON        LGT SNOW  16  10  79 NW21G28   30.29R WCI  -2
WILLMAR        CLOUDY    25  16  68 N14       30.22S WCI  13
$$
MNZ033>034-036-042>043-049>051-058-059-261900-
   Central Minnesota

CITY           SKY/WX    TMP DP  RH WIND       PRES   REMARKS
ST CLOUD       CLOUDY    24  15  68 N13       30.20S WCI  12
6HR MIN TEMP:  22; 6HR MAX TEMP:  25; 6HR PCP:  0.01;

SAUK CENTRE    CLOUDY    19  14  80 N10       30.22R WCI   8
PAYNESVILLE    CLOUDY    19  15  82 NW12      30.21S WCI   7
AITKIN         MIX PCPN  19  10  68 NW7       30.21S WCI  10
PINE RIVER     FAIR      16   7  67 N14       30.26S WCI   1
BRAINERD       FAIR      18   9  68 N9        30.22F WCI   7
STAPLES        FAIR      18   9  68 N9        30.23R WCI   6
LONG PRAIRIE   PTSUNNY   19  12  73 NW10      30.23R WCI   8
LITTLE FALLS   FAIR      21  12  68 N3        30.22S
LITCHFIELD     FAIR      23  19  86 N10       30.20S WCI  12
BUFFALO        CLOUDY    24  18  80 N9        30.20R WCI  14
MAPLE LAKE     PTSUNNY   24  20  82 N9        30.20S WCI  15
$$
MNZ037-044-045-052-053-261900-
   East Central Minnesota

CITY           SKY/WX    TMP DP  RH WIND       PRES   REMARKS
PRINCETON      PTSUNNY   25  18  74 CALM      30.20R
MORA           PTSUNNY   25  14  63 N7        30.21S WCI  17
CAMBRIDGE      FAIR      25  16  68 CALM      30.18S
RUSH CITY      CLOUDY    24  17  73 N9        30.19S WCI  14
MOOSE LAKE     CLOUDY    23  14  68 N9        30.18S WCI  13
HINCKLEY       MOCLDY    27  18  69 N9        30.19S WCI  17
CLOQUET        CLOUDY    19  12  73 N9        30.18R WCI   9
MCGREGOR       CLOUDY    19  12  73 N8        30.21S WCI   9
$$
MNZ071>073-080-081-089-090-097-098-261900-
   Southwest Minnesota

CITY           SKY/WX    TMP DP  RH WIND       PRES   REMARKS
MONTEVIDEO     CLOUDY    16  12  86 N15       30.25F WCI   1
GRANITE FALLS  CLOUDY    16  11  82 NW12      30.25S WCI   3
CANBY          LGT SNOW  13   8  83 NW14G20   30.28S WCI  -3
MARSHALL       CLOUDY    12   7  79 N25       30.23R WCI  -8
REDWOOD FALLS  CLOUDY    24  19  81 N12G18    30.20R WCI  13
OLIVIA         CLOUDY    27  19  74 N12       30.20S WCI  16
PIPESTONE      CLOUDY    18  12  79 NE13G18   30.18R WCI   4
WINDOM         LGT SNOW  23  21  93 N20       30.14R WCI   8
WORTHINGTON    CLOUDY    21  18  86 N25       30.15R WCI   4
JACKSON        LGT SNOW  25  21  86 VRB15G22  30.12R WCI  12
TRACY          CLOUDY    16  12  86 NW18G28   30.21R FOG     WCI  -1
SLAYTON        CLOUDY    15  12  90 N22       30.18R FOG     WCI  -3
$$
MNZ065>067-074>077-082>085-091>093-261900-
   South Central Minnesota

CITY           SKY/WX    TMP DP  RH WIND       PRES   REMARKS
MANKATO        CLOUDY    25  19  80 N15       30.15R WCI  12
NEW ULM        LGT SNOW  23  21  93 N9G16     30.16S WCI  13
ST JAMES       SNOW      25  21  86 N15       30.16R VSB 1/2 WCI  12
FAIRMONT       CLOUDY    25  19  80 N14       30.11S VSB 1   WCI  13
GLENCOE        CLOUDY    26  23  87 N8        30.17S FOG     WCI  18
FARIBAULT      LGT SNOW  25  21  86 NE6       30.14S VSB 3/4 WCI  18
OWATONNA       LGT SNOW  23  19  86 NE6       30.13S WCI  16
WASECA         LGT SNOW  23  18  80 NE14      30.14S VSB 1   WCI  11
ALBERT LEA     LGT SNOW  25  23  93 N13       30.10R WCI  13
$$
MNZ078>079-086>088-094>096-261900-
   Southeast Minnesota

CITY           SKY/WX    TMP DP  RH WIND       PRES   REMARKS
ROCHESTER      SNOW      23  20  88 NE13      30.11R VSB 1/2 WCI  11
6HR MIN TEMP:  20; 6HR MAX TEMP:  23; 6HR PCP:  0.05;

RED WING       LGT SNOW  28  21  74 N3        30.15S
STANTON        LGT SNOW  26  22  85 N9        30.14S VSB 3/4 WCI  17
DODGE CENTER   LGT SNOW  23  21  93 NE14      30.11R WCI  11
WINONA         CLOUDY    28  21  74 CALM      30.16R
AUSTIN         LGT SNOW  25  21  86 N9        30.09S VSB 1   WCI  15
PRESTON        LGT SNOW  24  19  83 NE10      30.09R WCI  13
$$
ABBREVIATIONS USED IN REMARKS
   TC - TEMPERATURES IN CELSIUS
  WCI - WIND CHILL INDEX
   HX - HEAT INDEX
  VSB - VISIBILITY
$$


USA.gov is the U.S. government's official web portal to all federal, state and local government web resources and services.